Location: Burera
(21.3780°N, 81.9534°E)
Time: 11:36:46
(UTC+00:00)

Skynet4D Del rocket - Pass Details

Date: 13 August 2020
Orbit: 763 x 1291 km, 26.9° (Epoch: 21 September)

Event Time Altitude Azimuth Distance (km) Brightness Sun altitude
Rises 15:25:33 0° 287° (WNW) 3,209 7.8 -31.0°
Reaches altitude 10° 15:28:00 10° 292° (WNW) 2,293 6.8 -31.5°
Enters shadow 15:32:07 47° 326° (NW) 1,031 4.4 -32.2°
